Regional Weather Roundup
Issued by NWS

Home | Current Version | Previous Version | Text Only | Print | Product List | Glossary On
Versions: 1 2 3 4 5 6 7 8 9 10 11 12 13 14 15 16 17 18 19 20 21 22 23 24 25 26 27 28 29 30 31 32 33 34 35 36 37 38 39 40 41 42 43 44 45 46 47 48 49 50
000
ASUS46 KSEW 040110
RWRWA

WASHINGTON REGIONAL WEATHER ROUNDUP
NATIONAL WEATHER SERVICE SEATTLE WA
600 PM PDT TUE MAY 03 2016

NOTE:"FAIR" INDICATES FEW OR NO CLOUDS BELOW 12,000 FEET WITH NO
SIGNIFICANT WEATHER AND/OR OBSTRUCTIONS TO VISIBILITY.

WAZ505-507>509-040200-
SEATTLE, TACOMA, EVERETT, AND VICINITY

CITY           SKY/WX    TMP DP  RH WIND       PRES   REMARKS
EVERETT        CLOUDY    58  50  75 N10G17    30.05S
BOEING FIELD   CLOUDY    70  53  54 NW8       30.02S
RENTON         CLOUDY    72  54  53 SW6       30.01S
SEATAC AIRPORT CLOUDY    68  52  56 W8        30.04S
JBLM-MCCHORD   CLOUDY    65  54  67 W9        30.04S
PUYALLUP       FAIR      66  55  68 VRB3      30.04S
BREMERTON      CLOUDY    64  54  68 SW8       30.06F
JBLM-FT LEWIS  CLOUDY    65  53  66 W10       30.04R
TACOMA NARROWS CLOUDY    64  51  62 VRB7      30.04S
$$

WAZ001-503-506-510-514-515-040200-
NORTH INTERIOR

CITY           SKY/WX    TMP DP  RH WIND       PRES   REMARKS
BELLINGHAM     CLOUDY    64  52  64 S9        30.04R
FRIDAY HARBOR  CLOUDY    60  50  69 SW9       30.05S
EASTSOUND      CLOUDY    61  50  67 CALM      30.02S
PORT ANGELES   CLOUDY    55  48  77 NW13G24   30.10R
EDIZ HOOK      FAIR      54  49  82 W20       30.09S
PORT TOWNSEND  FAIR      59  52  77 NW10G16   30.06S
NAS WHIDBEY    CLOUDY    57  51  80 SW9       30.09S
ARLINGTON      CLOUDY    63  46  55 NW15      30.06S
BURLINGTON     SUNNY     63  52  67 SW5       30.05S
$$

WAZ020-022-039-040-504-511-512-040200-
SOUTHWEST INTERIOR

CITY           SKY/WX    TMP DP  RH WIND       PRES   REMARKS
SHELTON        CLOUDY    63  49  60 SW12      30.02F
OLYMPIA        CLOUDY    65  50  58 SW7       30.04S
CHEHALIS       FAIR      64  54  68 VRB7      30.05S
KELSO          CLOUDY    63  50  63 W8        30.08R
VANCOUVER      CLOUDY    69  54  58 NW8       30.00S
SCAPPOOSE, OR  CLOUDY    68  53  58 NW8       30.00S
PORTLAND, OR   CLOUDY    70  53  54 NW7       30.01R
$$

WAZ021-516-517-040200-
WASHINGTON COAST

CITY           SKY/WX    TMP DP  RH WIND       PRES   REMARKS
FORKS          CLOUDY    54  48  80 W8        30.13S
HOQUIAM        CLOUDY    57  50  77 W10       30.09S HAZE
ASTORIA, OR    CLOUDY    57  51  80 NW15      30.09S
$$

WAZ019-023-024-040-518-519-040200-
CASCADE MOUNTAINS AND COLUMBIA GORGE

CITY           SKY/WX    TMP DP  RH WIND       PRES   REMARKS
STAMPEDE PASS  CLOUDY    56  43  61 VRB5      30.08S
TROUTDALE, OR  CLOUDY    72  52  49 VRB5      29.99F
THE DALLES, OR CLOUDY    72  47  40 NW16      29.92F
$$

WAZ026-027-041>044-520-521-040200-
EAST SLOPES

CITY           SKY/WX    TMP DP  RH WIND       PRES   REMARKS
OMAK           PTSUNNY   83  34  17 S14       29.90F
WENATCHEE      CLOUDY    79  43  27 E5        29.90F
ELLENSBURG     CLOUDY    71  48  43 NW26G37   29.94S
YAKIMA         CLOUDY    81  44  27 SW7       29.91R
$$

WAZ028-034-035-040200-
COLUMBIA BASIN

CITY           SKY/WX    TMP DP  RH WIND       PRES   REMARKS
EPHRATA        PTSUNNY   82  36  19 SW7       29.90F
MOSES LAKE     PTSUNNY   84  35  17 VRB5      29.90F
PASCO          PTSUNNY   91  35  13 NE7       29.84F
HERMISTON, OR  PTSUNNY   89  42  19 N7        29.83F
$$

WAZ036>038-040200-
NORTHEAST WASHINGTON

CITY           SKY/WX    TMP DP  RH WIND       PRES   REMARKS
SPOKANE GEIGER PTSUNNY   80  31  16 S7        29.97F
SPOKANE FELTS  MOSUNNY   83  33  16 S10       29.95F
FAIRCHILD AFB  MOSUNNY   78  35  20 SW10      29.97F
COEURDALENE,ID SUNNY     81  39  22 SW7       29.93F
DEER PARK      MOSUNNY   80  31  16 SW10      29.96F
$$

WAZ029>033-040200-
SOUTHEAST WASHINGTON

CITY           SKY/WX    TMP DP  RH WIND       PRES   REMARKS
PULLMAN        SUNNY     78  37  22 S7        29.99F
LEWISTON, ID   SUNNY     85  40  20 E7        29.91F
WALLA WALLA    MOSUNNY   83  45  26 NE9       29.88F
PENDLETON, OR  PTSUNNY   84  39  20 E13       29.86F
$$



USA.gov is the U.S. government's official web portal to all federal, state and local government web resources and services.